Location: Monteux
(44.0348°N, 4.9972°E)
Time: 16:56:28
(UTC+00:00)

USA 215 - Pass Details

Date: 30 November 2020
Orbit: 1098 x 1110 km, 123.0° (Epoch: 14 January)

Event Time Altitude Azimuth Distance (km) Brightness Sun altitude
Exits shadow 17:43:40 25° 64° (ENE) 2,055 4.1 -17.5°
Maximum altitude 17:47:32 58° 134° (SE) 1,276 3.4 -18.2°
Drops below altitude 10° 17:53:59 10° 213° (SSW) 2,965 6.1 -19.3°
Sets 17:56:30 0° 217° (SW) 3,921 6.9 -19.8°
